Miscellaneous Local Product
Issued by NWS North Platte, NE

Home | Current Version | Previous Version | Text Only | Print | Product List | Glossary On
Versions: 1 2 3 4 5 6 7 8 9 10 11 12 13 14 15 16 17 18 19 20 21 22 23 24 25 26 27 28 29 30 31 32 33 34 35 36 37 38 39 40 41 42 43 44 45 46 47 48 49 50
539
AXUS43 KLBF 282210
MISLBF


WESTERN AND NORTH CENTRAL NEBRASKA HOURLY WEATHER ROUNDUP
NATIONAL WEATHER SERVICE NORTH PLATTE NE
500 PM CDT THU JUL 28 2016

NOTE: "FAIR" INDICATES FEW OR NO CLOUDS BELOW 12,000 FEET WITH NO
SIGNIFICANT WEATHER AND/OR OBSTRUCTIONS TO VISIBILITY.

NOTE: STATIONS NOT REPORTING VARIABLES SUCH AS SKY/WEATHER OR
PRESSURE ARE PROVIDED BY RAWS AND APRS NETWORKS AND ARE NOT UNDER
NATIONAL WEATHER SERVICE QUALITY CONTROL.

...OBSERVATIONS IN AND NEAR THE EASTERN PANHANDLE OF NEBRASKA...

CITY           SKY/WX    TMP DP  RH WIND       PRES   REMARKS
PINE RIDGE     LGT RAIN  74  58  57 NW10      30.12S
CHADRON        MOSUNNY   81  53  37 VRB5      30.10F
ALLIANCE       MOSUNNY   76  58  53 N9        30.14F
SIDNEY         SUNNY     80  54  40 E8        30.16F
CRESCENT LAKE    N/A     75  58  54 N8          N/A
$$

...OBSERVATIONS IN NORTHERN NEBRASKA AND FAR SOUTHERN SOUTH DAKOTA...

CITY           SKY/WX    TMP DP  RH WIND       PRES   REMARKS
WINNER         CLOUDY    74  64  71 SE6       30.06F
VALENTINE      CLOUDY    75  59  57 E3        30.07F
THEDFORD       SUNNY     78  59  51 E7        30.10F
AINSWORTH      CLOUDY    73  65  75 CALM      30.08F
O`NEILL        CLOUDY    78  58  49 NE5       30.06F
ORD            CLOUDY    73  66  78 CALM      30.03F
BROKEN BOW     CLOUDY    74  67  78 SE6       30.06S
VALENTINE NWR    N/A     74  61  63 E3          N/A
BUTTE            N/A     78  61  55 E3          N/A
HALSEY           N/A     77  56  48 NE3         N/A
EWING            N/A     77  64  64 CALM        N/A
$$

...OBSERVATIONS IN SOUTHWEST NEBRASKA AND FAR NORTHEAST COLORADO...

CITY           SKY/WX    TMP DP  RH WIND       PRES   REMARKS
HOLYOKE        FAIR      79  61  53 E7        30.12F
IMPERIAL       SUNNY     75  60  59 SE12      30.09F
OGALLALA       SUNNY     77  55  45 SE3       30.11S
NORTH PLATTE   MOSUNNY   73  61  65 E6        30.10R
MCCOOK         CLOUDY    68  64  87 E7        30.05F
LEXINGTON      CLOUDY    69  66  92 SE12      30.01F
STAPLETON        N/A     74  63  67 CALM        N/A
GOTHENBURG       N/A     66  61  85 E12         N/A
CALLAWAY         N/A     66  65  96 S5          N/A
$$

...OBSERVATIONS IN CENTRAL LINCOLN COUNTY AREA...

CITY           SKY/WX    TMP DP  RH WIND       PRES   REMARKS
N.P. AIRPORT   MOSUNNY   73  61  65 E6        30.10R
N.P. DOWNTOWN    N/A     71  62  74 NE5         N/A
N.P. SOUTHEAST   N/A     73  63  72 CALM        N/A
N.P. HILLCREST   N/A     72  63  72 NE7         N/A
$$

...SOME OBSERVATIONS FROM AROUND THE REGION...

CITY           SKY/WX    TMP DP  RH WIND       PRES   REMARKS
DENVER         MOSUNNY   84  54  35 VRB6      30.17F
LARAMIE        MOSUNNY   80  48  32 VRB7G22   30.27F
CHEYENNE       MOSUNNY   75  54  47 VRB5      30.24F
SCOTTSBLUFF    SUNNY     79  55  43 NW5       30.14F
RAPID CITY     CLOUDY    75  57  53 NE13      30.12F
BISMARCK       CLOUDY    74  56  53 N6        30.11F
PIERRE         CLOUDY    74  60  61 W13       30.05R
SIOUX FALLS    PTSUNNY   76  60  57 NE10      30.02S
OMAHA          MOSUNNY   84  62  47 N14       29.96F
GRAND ISLAND   LGT RAIN  74  67  78 CALM      30.04S
KANSAS CITY    MOSUNNY   86  66  51 N7        29.93F
WICHITA        PTSUNNY   90  72  55 SE10      29.93F HX  97
OKLAHOMA CITY  MOSUNNY   93  68  43 S7        29.92F HX  97
DALLAS         PTSUNNY   95  69  42 S12       29.89F THUNDER HX 100
AMARILLO       SUNNY     93  52  24 S12       30.03F HX  90
DODGE CITY     SUNNY     90  60  36 SE9       29.96F
HAYS           CLOUDY    88  64  45 SE7       29.95S
GOODLAND       SUNNY     84  62  47 E9        30.06F
$$




USA.gov is the U.S. government's official web portal to all federal, state and local government web resources and services.